Showing default

SHIYAN 6 (SY-6), 43711

Orbit data source: Space-Track

SHIYAN 6 (SY-6), 43711 is a payload satellite owned by CNSA (CN) in SSO that was launched on Mon, 19 Nov 2018 UTC via a CHANG ZHENG 2D launch vehicle from the Jiuquan Satellite Launch Center, China (JSC). Payload-class satellites include a variety of spacecraft equipped with specific instruments for various scientific and technological missions. These include communications satellites like Starlink; space stations such as the ISS; scientific satellites like the Hubble; Earth observation satellites from companies like Planet Labs, Umbra, and HawkEye 360; GPS; miniature CubeSats for education and research; and military/defense satellites.

Loading next visibility...
Identifier
43711, 2018-094B
Orbit
SSO
Country
Flag of CNCN / PRC
Related business
Manufacturer
DFH Shenzhen
Mission
Operational Defense Technology
Bus & Motor
SW6, AOCS
Mass
~1,000 kg wet, ~900 kg dry
Launch date (UTC)
2018-11-19 (7 years ago)
Launch vehicle
CHANG ZHENG 2D
Launch site
Jiuquan Satellite Launch Center, China (JSC)
Object type
Payload
Rocket body
Debris
Shape & HBR
Box + 2 Pan, 2.0 m
Radar Cross Section
3.315 m², Large (>1 m²)

Expand to show TLE details & history
Last TLE update: 13 hours ago

TLE from 13 hours ago
0 SHIYAN 6 (SY-6)
1 43711U 18094B   25354.92300215  .00004161  00000-0  15691-3 0  9996
2 43711  97.3681   5.9542 0015217  64.8281 295.4534 15.27504101394253
Epoch: 2025-12-20T22:09Z
TLE epoch observation values (Epoch: 2025-12-20T22:09:07.385Z)
Latitude
-0.00009°
Longitude
-56.0694°
Altitude
481.903 km
Speed
7.627 km/s
True Right ascension
00h 23m 49s
True Declination
0° 00' 00"
Sunlit
Object was in daylight at epoch
Visualization orbit readout
Latitude
Unknown
Longitude
Unknown
Altitude
Unknown
Speed
Unknown
Apparent Right ascension
Unknown
Apparent Declination
Unknown
Sunlit
N/A
Visualization observer readout
Local Sidereal Time
10:26:33
Azimuth
Unknown
Elevation
Unknown
Doppler factor
Unknown
Orbital elements
Apogee altitude
490.667 km
Perigee altitude
469.794 km
Semi-major axis
6,858.368 km
Eccentricity
0.00152
Inclination
97.3681°
RAAN
5.9542°
Arg. of periapsis
64.8281°
True anomaly
295.29582°
Mean anomaly
295.4534°
Eccentric anomaly
295.37462°
Mean motion
3.82131 °/min
Orbital period
94.21 mins
BSTAR
0.00015691
Loading maneuver chart data...
Computing Atmospheric mass density...
Loading historical data...
Loading historical data...
Loading historical data...
Loading historical data...
Loading historical data...
Loading historical data...
Loading historical data...

Documentation

Showing up to 5 results
|